Flag for U.S.A. Weather past 2 weeks in Modesto, California, U.S.A.

Now
83 °F

Sunny.


Feels Like: 81 °F
Forecast: 62 / 92 °F
Wind: 6 mph from Northeast

Location: Modesto City-County-Sham Field

Current Time: Sep 1, 2015 at 12:03:53 PM

Latest Report: Sep 1, 2015 at 10:53 AM


Visibility: 10 mi

Pressure: 29.85 "Hg

Humidity: 31%

Dew point: 49 °F

Location of ModestoLocation

Historic Weather in Modesto — Graph

°F

Modesto temperature yesterday

Maximum temperature yesterday: 93 °F (at 3:53 PM)
Minimum temperature yesterday: 61 °F (at 5:53 AM)
Average temperature yesterday: 78 °F

Past Weeks' High & Low Weather Summary

 TemperatureHumidityPressure
High105 °F (Aug 17, 3:53 PM)78% (Aug 20, 5:53 AM)30.01 "Hg (Aug 20, 5:53 AM)
Low61 °F (Aug 22, 6:53 AM)12% (Aug 17, 2:53 PM)29.72 "Hg (Aug 17, 5:53 PM)
Average79 °F41%29.88 "Hg
* Reported Aug 17 10:53 AM — Sep 1 10:53 AM, Modesto, Weather by CustomWeather, © 2015

Note: Actual official high and low records may vary slightly from our data, if they occured in-between our weather recording intervals... More about our weather records

Advertising

Modesto weather history for previous 24 hours

 ConditionsComfort  
Time TempWeatherWind HumidityBarometerVisibility
10:53 AM
Tue, Sep 1
83 °FSunny.6 mph31%29.85 "Hg10 mi
9:53 AM77 °FSunny.5 mph39%29.85 "Hg10 mi
8:53 AM73 °FSunny.12 mph46%29.85 "Hg10 mi
7:53 AM69 °FSunny.5 mph51%29.85 "Hg10 mi
6:53 AM64 °FClear.7 mph63%29.83 "Hg10 mi
5:53 AM64 °FClear.No wind65%29.82 "Hg10 mi
4:53 AM66 °FClear.7 mph59%29.81 "Hg10 mi
3:53 AM67 °FClear.No wind59%29.82 "Hg10 mi
2:53 AM68 °FClear.6 mph55%29.82 "Hg10 mi
1:53 AM72 °FClear.6 mph43%29.82 "Hg10 mi
12:53 AM73 °FClear.6 mph43%29.83 "Hg10 mi
11:53 PM
Mon, Aug 31
74 °FClear.7 mph43%29.82 "Hg10 mi
10:53 PM77 °FClear.6 mph37%29.81 "Hg10 mi
9:53 PM79 °FClear.14 mph34%29.81 "Hg10 mi
8:53 PM84 °FClear.14 mph29%29.80 "Hg10 mi
7:53 PM86 °FSunny.9 mph20%29.79 "Hg10 mi
6:53 PM91 °FSunny.8 mph17%29.79 "Hg10 mi
5:53 PM93 °FPassing clouds.14 mph15%29.79 "Hg10 mi
4:53 PM93 °FSunny.13 mph14%29.80 "Hg10 mi
3:53 PM93 °FSunny.N/A17%29.81 "Hg10 mi
2:53 PM91 °FSunny.13 mph20%29.84 "Hg10 mi
1:53 PM89 °FSunny.14 mph24%29.86 "Hg10 mi
12:53 PM87 °FSunny.9 mph28%29.88 "Hg10 mi
Weather by CustomWeather, © 2015

See weather overviewHow to use our weather pages